Flag for Australia Weather past 2 weeks in Rockhampton, Queensland, Australia

Now
72 °F

Clear.


Feels Like: 67 °F
Forecast: 70 / 88 °F
Wind: No wind

Location: Rockhampton Airport

Current Time: Jan 31, 2015 at 4:03:06 AM

Latest Report: Jan 31, 2015 at 3:00 AM


Visibility: N/A

Pressure: 29.71 "Hg

Humidity: 94%

Dew point: 70 °F

Location of RockhamptonLocation

Historic Weather in Rockhampton — Graph

°F

Rockhampton temperature yesterday

Maximum temperature yesterday: 86 °F (at 12:00 PM)
Minimum temperature yesterday: 72 °F (at 3:00 AM)
Average temperature yesterday: 79 °F

Past Weeks' High & Low Weather Summary

 TemperatureHumidityPressure
High99 °F (Jan 19, 3:00 PM)100% (Jan 17, 12:00 AM)29.86 "Hg (Jan 17, 12:00 AM)
Low70 °F (Jan 20, 10:00 PM)29% (Jan 19, 3:00 PM)29.56 "Hg (Jan 23, 3:00 PM)
Average80 °F79%29.69 "Hg
* Reported Jan 16 3:00 AM — Jan 31 3:00 AM, Rockhampton, Weather by CustomWeather, © 2014

Note: Actual official high and low records may vary slightly from our data, if they occured in-between our weather recording intervals... More about our weather records

Advertising

Rockhampton weather history for previous 24 hours

 ConditionsComfort  
Time TempWeatherWind HumidityBarometerVisibility
3:00 AM
Jan 31
72 °FClear.No wind94%29.71 "HgN/A
2:30 AM73 °FClear.2 mph89%29.74 "HgN/A
2:00 AM73 °FClear.5 mph89%29.71 "HgN/A
1:30 AM73 °FClear.3 mph89%29.71 "HgN/A
1:00 AM73 °FClear.No wind89%29.74 "HgN/A
12:30 AM73 °FClear.No wind94%29.74 "HgN/A
12:00 AM75 °FClear.3 mph89%29.74 "HgN/A
11:30 PM
Jan 30
75 °FClear.No wind83%29.77 "HgN/A
11:00 PM75 °FClear.No wind83%29.77 "HgN/A
10:30 PM75 °FClear.3 mph83%29.77 "Hg10 mi
10:00 PM77 °FClear.3 mph79%29.77 "Hg10 mi
9:30 PM77 °FClear.1 mph79%29.77 "Hg10 mi
9:00 PM77 °FClear.No wind74%29.74 "Hg10 mi
8:30 PM79 °FClear.5 mph70%29.74 "Hg10 mi
8:00 PM79 °FClear.5 mph70%29.74 "Hg10 mi
7:30 PM79 °FClear.5 mph70%29.74 "Hg10 mi
7:00 PM79 °FClear.6 mph70%29.71 "Hg10 mi
6:30 PM81 °FClear.6 mph66%29.71 "Hg10 mi
6:00 PM82 °FClear.8 mph58%29.71 "Hg10 mi
5:30 PM82 °FPassing clouds.8 mph58%29.68 "HgN/A
5:00 PM84 °FPassing clouds.9 mph55%29.68 "HgN/A
4:30 PM84 °FPassing clouds.8 mph58%29.68 "HgN/A
4:00 PM82 °FScattered clouds.7 mph62%29.68 "HgN/A
3:30 PM82 °FSprinkles. Scattered clouds.9 mph62%29.68 "HgN/A
3:00 PM84 °FSprinkles. Broken clouds.8 mph58%29.68 "HgN/A
2:30 PM84 °FSprinkles. Scattered clouds.9 mph58%29.68 "HgN/A
2:00 PM86 °FScattered clouds.8 mph55%29.71 "HgN/A
1:30 PM86 °FScattered clouds.8 mph55%29.71 "HgN/A
1:00 PM86 °FPassing clouds.8 mph55%29.74 "HgN/A
12:30 PM84 °FPassing clouds.12 mph58%29.74 "HgN/A
12:00 PM86 °FScattered clouds.10 mph52%29.74 "HgN/A
11:30 AM84 °FPassing clouds.9 mph58%29.77 "HgN/A
11:00 AM84 °FPassing clouds.12 mph62%29.77 "HgN/A
10:30 AM84 °FPassing clouds.9 mph62%29.77 "HgN/A
10:00 AM82 °FPassing clouds.10 mph66%29.77 "HgN/A
9:30 AM82 °FPassing clouds.10 mph66%29.77 "HgN/A
9:00 AM81 °FPassing clouds.10 mph70%29.77 "HgN/A
8:30 AM79 °FPassing clouds.10 mph74%29.77 "HgN/A
8:00 AM77 °FPassing clouds.10 mph79%29.77 "HgN/A
7:00 AM75 °FPassing clouds.8 mph83%29.77 "HgN/A
6:30 AM73 °FPassing clouds.6 mph89%29.74 "HgN/A
6:00 AM72 °FPassing clouds.7 mph94%29.74 "HgN/A
5:30 AM72 °FSunny.7 mph94%29.71 "HgN/A
5:00 AM73 °FSunny.8 mph89%29.71 "HgN/A
4:30 AM73 °FClear.8 mph89%29.71 "HgN/A
4:00 AM73 °FClear.7 mph89%29.71 "HgN/A
Weather by CustomWeather, © 2014

See weather overviewHow to use our weather pages